This is the latest recevied weather packets stored in our database for station/object K7TUS-6. If no packets are shown the sender has not sent any weather packets the latest 10 day(s).
| Time | Temp. | Humidity | Pressure | Rain* | Wind** | Luminosity | Snow |
|---|---|---|---|---|---|---|---|
| 1777673103 | 17.22° C | 1% | 982.3 hPa | - | - | - | - |
| 1777672809 | 18.33° C | 100% | 982.8 hPa | - | - | - | - |
| 1777672508 | 18.89° C | 1% | 982.5 hPa | - | - | - | - |
| 1777672207 | 18.33° C | 100% | 982.5 hPa | - | - | - | - |
| 1777671907 | 18.33° C | 1% | 982.1 hPa | - | - | - | - |
| 1777671606 | 17.22° C | 2% | 982.3 hPa | - | - | - | - |
| 1777671306 | 18.89° C | 2% | 981.9 hPa | - | - | - | - |
| 1777671005 | 18.89° C | 3% | 982.2 hPa | - | - | - | - |
| 1777670704 | 17.78° C | 4% | 982.1 hPa | - | - | - | - |
| 1777670404 | 17.22° C | 4% | 982.2 hPa | - | - | - | - |
| 1777670103 | 17.78° C | 4% | 983.2 hPa | - | - | - | - |
| 1777669809 | 17.22° C | 5% | 982.7 hPa | - | - | - | - |
| 1777669208 | 15.56° C | 6% | 982.9 hPa | - | - | - | - |
| 1777668907 | 16.11° C | 6% | 981.8 hPa | - | - | - | - |
| 1777668607 | 15° C | 9% | 983.1 hPa | - | - | - | - |
| 1777668306 | 14.44° C | 8% | 983.1 hPa | - | - | - | - |
| 1777668006 | 14.44° C | 8% | 983.6 hPa | - | - | - | - |
| 1777667705 | 14.44° C | 9% | 983 hPa | - | - | - | - |
| 1777667404 | 14.44° C | 8% | 982.8 hPa | - | - | - | - |
| 1777667104 | 15.56° C | 8% | 982.7 hPa | - | - | - | - |
| 1777666803 | 15.56° C | 6% | 982.6 hPa | - | - | - | - |
| 1777666509 | 16.67° C | 5% | 982.5 hPa | - | - | - | - |
| 1777666208 | 16.67° C | 6% | 982.7 hPa | - | - | - | - |
| 1777665907 | 16.67° C | 8% | 982.4 hPa | - | - | - | - |
| 1777665607 | 15.56° C | 8% | 982.5 hPa | - | - | - | - |
* Rain since midnight (hover to see other rain measurements)
** Current wind speed in m/s (hover to see current wind gust speed)